,,PA_Meas_PMT16A,,PR_Meas_QMR101_102,,RH_Meas_QMH101,,SR_Meas_QMS101,,TA_Meas_QMH101,,GenWind,,GenWind,
time,status,PA,status,PR,status,RH,status,SR,status,TA,status,DirAvg,status,SpdAvg,
2015-03-14, 07:23:04,VALID,920.678,VALID,0,VALID,98.1896,VALID,82.7297,VALID,20.2114,VALID,92,VALID,0,
2015-03-14, 07:24:04,VALID,920.697,VALID,0,VALID,98.2277,VALID,83.5892,VALID,20.2114,VALID,94,VALID,0,
2015-03-14, 07:25:04,VALID,920.712,VALID,0,VALID,98.1972,VALID,77.4651,VALID,20.2684,VALID,92,VALID,0,
2015-03-14, 07:26:04,VALID,920.711,VALID,0,VALID,98.1972,VALID,72.093,VALID,20.3074,VALID,91,VALID,0,
2015-03-14, 07:27:04,VALID,920.746,VALID,0,VALID,98.182,VALID,70.1591,VALID,20.3464,VALID,91,VALID,0,
2015-03-14, 07:28:04,VALID,920.775,VALID,0,VALID,98.1591,VALID,71.4484,VALID,20.4049,VALID,91,VALID,0,
2015-03-14, 07:29:04,VALID,920.801,VALID,0,VALID,98.1743,VALID,74.9939,VALID,20.4829,VALID,91,VALID,0,
2015-03-14, 07:30:04,VALID,920.803,VALID,0,VALID,98.182,VALID,83.3743,VALID,20.4439,VALID,91,VALID,0,
2015-03-14, 07:31:04,VALID,920.813,VALID,0,VALID,98.1896,VALID,97.2342,VALID,20.4064,VALID,91,VALID,0,
2015-03-14, 07:32:04,VALID,920.828,VALID,0,VALID,98.1896,VALID,114.962,VALID,20.4244,VALID,91,VALID,0,
2015-03-14, 07:33:04,VALID,920.804,VALID,0,VALID,98.1743,VALID,130.111,VALID,20.4439,VALID,91,VALID,0,
2015-03-14, 07:34:04,VALID,920.793,VALID,0,VALID,98.1896,VALID,138.599,VALID,20.4049,VALID,91,VALID,0,
2015-03-14, 07:35:04,VALID,920.777,VALID,0,VALID,98.1743,VALID,142.789,VALID,20.4829,VALID,89,VALID,0,
2015-03-14, 07:36:04,VALID,920.729,VALID,0,VALID,98.1515,VALID,145.368,VALID,20.5414,VALID,73,VALID,0,
2015-03-14, 07:37:04,VALID,920.726,VALID,0,VALID,98.1515,VALID,188.129,VALID,20.5999,VALID,73,VALID,0,
2015-03-14, 07:38:04,VALID,920.701,VALID,0,VALID,98.1362,VALID,211.444,VALID,20.6015,VALID,73,VALID,0,
2015-03-14, 07:39:04,VALID,920.716,VALID,0,VALID,98.1439,VALID,221.651,VALID,20.6194,VALID,73,VALID,0,
2015-03-14, 07:40:04,VALID,920.721,VALID,0,VALID,98.1362,VALID,219.932,VALID,20.66,VALID,73,VALID,0,
2015-03-14, 07:41:04,VALID,920.745,VALID,0,VALID,98.1515,VALID,211.122,VALID,20.699,VALID,73,VALID,0,
2015-03-14, 07:42:04,VALID,920.767,VALID,0,VALID,98.121,VALID,190.063,VALID,20.7771,VALID,73,VALID,0,
2015-03-14, 07:43:04,VALID,920.763,VALID,0,VALID,98.0981,VALID,169.65,VALID,20.9331,VALID,73,VALID,0,
2015-03-14, 07:44:04,VALID,920.815,VALID,0,VALID,98.0752,VALID,109.16,VALID,20.9901,VALID,73,VALID,0,
2015-03-14, 07:45:04,VALID,920.821,VALID,0,VALID,98.0752,VALID,110.557,VALID,21.0291,VALID,73,VALID,0,
2015-03-14, 07:46:04,VALID,920.835,VALID,0,VALID,98.0905,VALID,128.285,VALID,20.9316,VALID,73,VALID,0,
2015-03-14, 07:47:04,VALID,920.853,VALID,0,VALID,98.121,VALID,138.384,VALID,20.8519,VALID,73,VALID,0,
2015-03-14, 07:48:04,VALID,920.866,VALID,0,VALID,98.121,VALID,132.045,VALID,20.8129,VALID,73,VALID,0,
2015-03-14, 07:49:04,VALID,920.893,VALID,0,VALID,98.0981,VALID,145.26,VALID,20.93,VALID,73,VALID,0,
2015-03-14, 07:50:04,VALID,920.893,VALID,0,VALID,98.0829,VALID,140.533,VALID,21.008,VALID,73,VALID,0,
2015-03-14, 07:51:04,VALID,920.928,VALID,0,VALID,98.0676,VALID,142.574,VALID,21.086,VALID,73,VALID,0,
2015-03-14, 07:52:04,VALID,920.922,VALID,0,VALID,98.0752,VALID,146.442,VALID,21.086,VALID,73,VALID,0,
2015-03-14, 07:53:04,VALID,920.929,VALID,0,VALID,98.0981,VALID,155.682,VALID,21.0681,VALID,73,VALID,0,
2015-03-14, 07:54:04,VALID,920.937,VALID,0,VALID,98.0829,VALID,153.426,VALID,21.1071,VALID,73,VALID,0,
2015-03-14, 07:55:04,VALID,920.891,VALID,0,VALID,98.1134,VALID,149.988,VALID,21.0486,VALID,73,VALID,0,
2015-03-14, 07:56:04,VALID,920.915,VALID,0,VALID,98.1286,VALID,149.666,VALID,20.9901,VALID,73,VALID,0,
2015-03-14, 07:57:04,VALID,920.919,VALID,0,VALID,98.121,VALID,150.525,VALID,21.0096,VALID,73,VALID,0,
2015-03-14, 07:58:04,VALID,920.924,VALID,0,VALID,98.0905,VALID,150.418,VALID,21.1071,VALID,73,VALID,0,
2015-03-14, 07:59:04,VALID,920.921,VALID,0,VALID,98.1591,VALID,152.029,VALID,21.0291,VALID,73,VALID,0,
2015-03-14, 08:00:04,VALID,920.954,VALID,0,VALID,98.1743,VALID,158.261,VALID,20.9901,VALID,73,VALID,0,
2015-03-14, 08:01:04,VALID,920.949,VALID,0,VALID,98.1896,VALID,195.006,VALID,21.0291,VALID,73,VALID,0,
2015-03-14, 08:02:04,VALID,920.969,VALID,0,VALID,98.1439,VALID,254.098,VALID,21.086,VALID,73,VALID,0,
2015-03-14, 08:03:04,VALID,920.975,VALID,0,VALID,98.121,VALID,253.883,VALID,21.2047,VALID,73,VALID,0,
2015-03-14, 08:04:04,VALID,921.003,VALID,0,VALID,98.1667,VALID,205.857,VALID,21.1657,VALID,73,VALID,0,
2015-03-14, 08:05:04,VALID,920.988,VALID,0,VALID,98.1286,VALID,198.874,VALID,21.2437,VALID,117,VALID,0,
2015-03-14, 08:06:04,VALID,920.992,VALID,0,VALID,98.1057,VALID,191.138,VALID,21.3981,VALID,117,VALID,0,
2015-03-14, 08:07:04,VALID,921.012,VALID,0,VALID,98.0676,VALID,181.038,VALID,21.5347,VALID,133,VALID,0,
2015-03-14, 08:08:04,VALID,921.016,VALID,0,VALID,98.06,VALID,187.915,VALID,21.5152,VALID,184,VALID,0,
2015-03-14, 08:09:04,VALID,921.036,VALID,0,VALID,98.0981,VALID,199.196,VALID,21.4567,VALID,184,VALID,0,
2015-03-14, 08:10:04,VALID,921.028,VALID,0,VALID,98.0981,VALID,189.419,VALID,21.4567,VALID,182,VALID,0,
2015-03-14, 08:11:04,VALID,921.068,VALID,0,VALID,98.1362,VALID,189.634,VALID,21.3981,VALID,187,VALID,1.57891,
2015-03-14, 08:12:04,VALID,921.058,VALID,0,VALID,98.1515,VALID,190.171,VALID,21.3591,VALID,184,VALID,1.33789,
2015-03-14, 08:13:04,VALID,921.068,VALID,0,VALID,98.1515,VALID,191.89,VALID,21.3981,VALID,190,VALID,0.757422,
2015-03-14, 08:14:04,VALID,921.033,VALID,0,VALID,98.1515,VALID,196.832,VALID,21.4372,VALID,170,VALID,0.870703,
2015-03-14, 08:15:04,VALID,921.059,VALID,0,VALID,98.1362,VALID,218.643,VALID,21.4372,VALID,166,VALID,1.09531,
2015-03-14, 08:16:04,VALID,921.031,VALID,0,VALID,98.182,VALID,280.207,VALID,21.3201,VALID,163,VALID,1.12148,
2015-03-14, 08:17:04,VALID,920.988,VALID,0,VALID,98.1896,VALID,326.514,VALID,21.2811,VALID,163,VALID,0.880078,
2015-03-14, 08:18:04,VALID,920.974,VALID,0,VALID,98.1667,VALID,349.613,VALID,21.4177,VALID,163,VALID,0.582812,
2015-03-14, 08:19:04,VALID,920.978,VALID,0,VALID,98.0981,VALID,362.936,VALID,21.5916,VALID,163,VALID,0.208203,
2015-03-14, 08:20:04,VALID,921.004,VALID,0,VALID,98.0524,VALID,391.193,VALID,21.6908,VALID,144,VALID,0.764844,
2015-03-14, 08:21:04,VALID,920.973,VALID,0,VALID,98.0829,VALID,413.004,VALID,21.6713,VALID,146,VALID,0.834375,
2015-03-14, 08:22:04,VALID,920.986,VALID,0,VALID,98.0676,VALID,416.334,VALID,21.8452,VALID,127,VALID,0.465625,
2015-03-14, 08:23:04,VALID,920.965,VALID,0,VALID,98.0371,VALID,403.334,VALID,22.0598,VALID,54,VALID,1.03516,
2015-03-14, 08:24:04,VALID,920.937,VALID,0,VALID,97.999,VALID,377.548,VALID,22.2176,VALID,74,VALID,0.518359,
2015-03-14, 08:25:04,VALID,920.915,VALID,0,VALID,98.1515,VALID,375.185,VALID,22.042,VALID,68,VALID,1.06133,
2015-03-14, 08:26:04,VALID,920.906,VALID,0,VALID,98.243,VALID,166.641,VALID,21.9818,VALID,68,VALID,0.444922,
2015-03-14, 08:27:04,VALID,920.89,VALID,0,VALID,98.2201,VALID,172.765,VALID,22.1005,VALID,68,VALID,0.0941406,
2015-03-14, 08:28:04,VALID,920.893,VALID,0,VALID,98.182,VALID,173.303,VALID,22.2354,VALID,68,VALID,0,
2015-03-14, 08:29:04,VALID,920.879,VALID,0,VALID,98.182,VALID,395.491,VALID,22.3152,VALID,68,VALID,0,
2015-03-14, 08:30:04,VALID,920.895,VALID,0,VALID,98.1286,VALID,417.516,VALID,22.5103,VALID,68,VALID,0,
2015-03-14, 08:31:04,VALID,920.886,VALID,0,VALID,98.1591,VALID,411.392,VALID,22.6062,VALID,60,VALID,0.364453,
2015-03-14, 08:32:04,VALID,920.927,VALID,0,VALID,98.182,VALID,392.59,VALID,22.7818,VALID,55,VALID,0.608984,
2015-03-14, 08:33:04,VALID,920.934,VALID,0,VALID,98.2353,VALID,214.775,VALID,22.7428,VALID,55,VALID,0.292188,
2015-03-14, 08:34:04,VALID,920.928,VALID,0,VALID,98.243,VALID,191.89,VALID,22.7836,VALID,166,VALID,0.655078,
2015-03-14, 08:35:04,VALID,920.953,VALID,0,VALID,98.2582,VALID,148.913,VALID,22.7623,VALID,187,VALID,0.958203,
2015-03-14, 08:36:04,VALID,920.959,VALID,0,VALID,98.3344,VALID,134.301,VALID,22.6665,VALID,182,VALID,0,
2015-03-14, 08:37:04,VALID,920.967,VALID,0,VALID,98.4031,VALID,124.954,VALID,22.6079,VALID,182,VALID,0,
2015-03-14, 08:38:04,VALID,920.967,VALID,0,VALID,98.4564,VALID,115.607,VALID,22.5689,VALID,182,VALID,0,
2015-03-14, 08:39:04,VALID,920.973,VALID,0,VALID,98.464,VALID,107.226,VALID,22.4501,VALID,178,VALID,0,
2015-03-14, 08:40:04,VALID,920.992,VALID,0,VALID,98.4412,VALID,101.532,VALID,22.372,VALID,193,VALID,0,
2015-03-14, 08:41:04,VALID,920.982,VALID,0,VALID,98.4488,VALID,96.5896,VALID,22.2745,VALID,169,VALID,0,
2015-03-14, 08:42:04,VALID,920.964,VALID,0,VALID,98.4488,VALID,93.3664,VALID,22.1964,VALID,132,VALID,0,
2015-03-14, 08:43:04,VALID,920.958,VALID,0,VALID,98.3954,VALID,93.4738,VALID,22.0989,VALID,154,VALID,0,
2015-03-14, 08:44:04,VALID,920.928,VALID,0,VALID,98.4335,VALID,95.3003,VALID,21.9428,VALID,172,VALID,0,
2015-03-14, 08:45:04,VALID,920.913,VALID,0,VALID,98.4107,VALID,97.2342,VALID,21.9444,VALID,177,VALID,0,
2015-03-14, 08:46:04,VALID,920.959,VALID,0,VALID,98.3954,VALID,100.887,VALID,21.9038,VALID,176,VALID,0,
2015-03-14, 08:47:04,VALID,920.947,VALID,0,VALID,98.3573,VALID,103.896,VALID,21.8842,VALID,165,VALID,0,
2015-03-14, 08:48:04,VALID,920.923,VALID,0,VALID,98.3573,VALID,101.424,VALID,21.9054,VALID,154,VALID,0,
2015-03-14, 08:49:04,VALID,920.93,VALID,0,VALID,98.3268,VALID,100.243,VALID,21.8469,VALID,157,VALID,0,
2015-03-14, 08:50:04,VALID,920.913,VALID,0,VALID,98.3268,VALID,101.424,VALID,21.8664,VALID,183,VALID,0,
2015-03-14, 08:51:04,VALID,920.931,VALID,0,VALID,98.3497,VALID,105.185,VALID,21.7867,VALID,131,VALID,0,
2015-03-14, 08:52:04,VALID,920.905,VALID,0,VALID,98.2963,VALID,110.45,VALID,21.7867,VALID,155,VALID,0,
2015-03-14, 08:53:04,VALID,920.912,VALID,0,VALID,98.2887,VALID,117.648,VALID,21.7477,VALID,155,VALID,0,
2015-03-14, 08:54:04,VALID,920.893,VALID,0,VALID,98.3421,VALID,124.632,VALID,21.7282,VALID,173,VALID,0,
2015-03-14, 08:55:04,VALID,920.92,VALID,0,VALID,98.3573,VALID,128.07,VALID,21.6501,VALID,155,VALID,0,
2015-03-14, 08:56:04,VALID,920.901,VALID,0,VALID,98.3726,VALID,127.533,VALID,21.6111,VALID,155,VALID,0,
2015-03-14, 08:57:04,VALID,920.897,VALID,0,VALID,98.4107,VALID,126.781,VALID,21.5136,VALID,155,VALID,0,
2015-03-14, 08:58:04,VALID,920.917,VALID,0,VALID,98.3573,VALID,127.64,VALID,21.5542,VALID,148,VALID,0,
2015-03-14, 08:59:04,VALID,920.916,VALID,0,VALID,98.2963,VALID,130.863,VALID,21.5916,VALID,148,VALID,0,
2015-03-14, 09:00:04,VALID,920.906,VALID,0,VALID,98.2353,VALID,136.343,VALID,21.6891,VALID,143,VALID,0,
2015-03-14, 09:01:04,VALID,920.898,VALID,0,VALID,98.2125,VALID,144.079,VALID,21.6908,VALID,150,VALID,0,
2015-03-14, 09:02:04,VALID,920.886,VALID,0,VALID,98.1972,VALID,153.104,VALID,21.6908,VALID,153,VALID,0,
2015-03-14, 09:03:04,VALID,920.89,VALID,0,VALID,98.2277,VALID,159.658,VALID,21.6111,VALID,158,VALID,0,
2015-03-14, 09:04:04,VALID,920.879,VALID,0,VALID,98.1515,VALID,163.203,VALID,21.7477,VALID,162,VALID,0,
2015-03-14, 09:05:04,VALID,920.886,VALID,0,VALID,98.121,VALID,165.459,VALID,21.8079,VALID,162,VALID,0,
2015-03-14, 09:06:04,VALID,920.898,VALID,0,VALID,98.121,VALID,166.426,VALID,21.9038,VALID,162,VALID,0,
2015-03-14, 09:07:04,VALID,920.885,VALID,0,VALID,98.1362,VALID,167.286,VALID,21.9249,VALID,132,VALID,0,
2015-03-14, 09:08:04,VALID,920.852,VALID,0,VALID,98.1591,VALID,168.79,VALID,21.9054,VALID,109,VALID,0,
2015-03-14, 09:09:04,VALID,920.872,VALID,0,VALID,98.1515,VALID,170.402,VALID,21.8469,VALID,137,VALID,1.74336,
2015-03-14, 09:10:04,VALID,920.879,VALID,0,VALID,98.1362,VALID,169.757,VALID,21.7883,VALID,141,VALID,1.46719,
2015-03-14, 09:11:04,VALID,920.87,VALID,0,VALID,98.0981,VALID,169.542,VALID,21.8062,VALID,136,VALID,1.76992,
2015-03-14, 09:12:04,VALID,920.843,VALID,0,VALID,98.0752,VALID,173.517,VALID,21.7883,VALID,136,VALID,1.5332,
2015-03-14, 09:13:04,VALID,920.852,VALID,0,VALID,98.0066,VALID,184.262,VALID,21.7688,VALID,132,VALID,1.69375,
2015-03-14, 09:14:04,VALID,920.805,VALID,0,VALID,97.8999,VALID,222.081,VALID,21.7672,VALID,130,VALID,1.78828,
2015-03-14, 09:15:04,VALID,920.828,VALID,0,VALID,97.7856,VALID,335.539,VALID,21.8452,VALID,115,VALID,0.518359,
2015-03-14, 09:16:04,VALID,920.82,VALID,0,VALID,97.7246,VALID,297.827,VALID,22.081,VALID,123,VALID,0,
2015-03-14, 09:17:04,VALID,920.809,VALID,0,VALID,97.7017,VALID,295.893,VALID,22.0225,VALID,142,VALID,1.36328,
2015-03-14, 09:18:04,VALID,920.852,VALID,0,VALID,97.5492,VALID,298.472,VALID,22.0794,VALID,140,VALID,0,
2015-03-14, 09:19:04,VALID,920.852,VALID,0,VALID,97.3891,VALID,296.538,VALID,22.1184,VALID,144,VALID,0.246484,
2015-03-14, 09:20:04,VALID,920.857,VALID,0,VALID,97.2595,VALID,290.736,VALID,22.1981,VALID,165,VALID,0,
2015-03-14, 09:21:04,VALID,920.867,VALID,0,VALID,96.9775,VALID,289.554,VALID,22.1981,VALID,140,VALID,0.342969,
2015-03-14, 09:22:04,VALID,920.855,VALID,0,VALID,96.6649,VALID,291.918,VALID,22.2354,VALID,108,VALID,2.23945,
2015-03-14, 09:23:04,VALID,920.934,VALID,0,VALID,96.3829,VALID,296.645,VALID,22.294,VALID,123,VALID,1.425,
2015-03-14, 09:24:04,VALID,920.923,VALID,0,VALID,96.238,VALID,300.62,VALID,22.3933,VALID,169,VALID,1.56875,
2015-03-14, 09:25:04,VALID,920.915,VALID,0,VALID,96.1846,VALID,302.662,VALID,22.5086,VALID,130,VALID,0.675781,
2015-03-14, 09:26:04,VALID,920.915,VALID,0,VALID,96.0779,VALID,305.563,VALID,22.6257,VALID,123,VALID,1.07305,
2015-03-14, 09:27:04,VALID,920.916,VALID,0,VALID,95.2698,VALID,303.629,VALID,22.686,VALID,150,VALID,1.42031,
2015-03-14, 09:28:04,VALID,920.895,VALID,0,VALID,94.2026,VALID,294.281,VALID,22.686,VALID,179,VALID,1.39023,
2015-03-14, 09:29:04,VALID,920.927,VALID,0,VALID,93.7299,VALID,286.438,VALID,22.7233,VALID,139,VALID,1.02695,
2015-03-14, 09:30:04,VALID,920.876,VALID,0,VALID,92.5102,VALID,284.074,VALID,22.7233,VALID,166,VALID,1.28867,
2015-03-14, 09:31:04,VALID,920.881,VALID,0,VALID,91.7554,VALID,286.975,VALID,22.7818,VALID,144,VALID,0.755469,
2015-03-14, 09:32:04,VALID,920.856,VALID,0,VALID,91.5953,VALID,288.909,VALID,22.8989,VALID,68,VALID,1.20781,
2015-03-14, 09:33:04,VALID,920.872,VALID,0,VALID,91.9689,VALID,293.422,VALID,23.016,VALID,67,VALID,0.609375,
2015-03-14, 09:34:04,VALID,920.872,VALID,0,VALID,88.8433,VALID,298.686,VALID,22.9965,VALID,150,VALID,0.626562,
2015-03-14, 09:35:04,VALID,920.842,VALID,0,VALID,89.0644,VALID,299.116,VALID,23.016,VALID,147,VALID,0.978125,
2015-03-14, 09:36:04,VALID,920.866,VALID,0,VALID,89.0644,VALID,300.728,VALID,23.0941,VALID,181,VALID,0,
2015-03-14, 09:37:04,VALID,920.856,VALID,0,VALID,87.0747,VALID,310.183,VALID,23.1527,VALID,128,VALID,0,
2015-03-14, 09:38:04,VALID,920.867,VALID,0,VALID,87.4177,VALID,326.943,VALID,23.1527,VALID,124,VALID,0,
2015-03-14, 09:39:04,VALID,920.859,VALID,0,VALID,87.1661,VALID,346.068,VALID,23.1314,VALID,129,VALID,0,
2015-03-14, 09:40:04,VALID,920.857,VALID,0,VALID,88.7061,VALID,369.598,VALID,23.229,VALID,131,VALID,0,
2015-03-14, 09:41:04,VALID,920.885,VALID,0,VALID,89.6971,VALID,400.97,VALID,23.4845,INVALID,360,INVALID,0,
2015-03-14, 09:42:04,VALID,920.909,VALID,0,VALID,89.4532,VALID,428.475,VALID,23.6779,VALID,130,VALID,0,
2015-03-14, 09:43:04,VALID,920.888,VALID,0,VALID,84.5056,VALID,409.351,VALID,23.7791,VALID,118,VALID,0,
2015-03-14, 09:44:04,VALID,920.888,VALID,0,VALID,85.4661,VALID,386.466,VALID,23.9335,VALID,118,VALID,0,
2015-03-14, 09:45:04,VALID,920.864,VALID,0,VALID,83.6822,VALID,378.085,VALID,24.1482,VALID,63,VALID,0,
2015-03-14, 09:46:04,VALID,920.856,VALID,0,VALID,82.432,VALID,374.647,VALID,24.1873,VALID,79,VALID,0,
2015-03-14, 09:47:04,VALID,920.846,VALID,0,VALID,81.2427,VALID,374.218,VALID,24.0506,VALID,41,VALID,0,
2015-03-14, 09:48:04,VALID,920.835,VALID,0,VALID,80.9759,VALID,378.193,VALID,23.992,VALID,27,VALID,0,
2015-03-14, 09:49:04,VALID,920.813,VALID,0,VALID,83.6136,VALID,390.978,VALID,23.992,VALID,31,VALID,0,
2015-03-14, 09:50:04,VALID,920.802,VALID,0,VALID,82.8742,VALID,417.194,VALID,24.0506,VALID,38,VALID,0,
2015-03-14, 09:51:04,VALID,920.772,VALID,0,VALID,80.3584,VALID,478.113,VALID,24.0683,VALID,24,VALID,1.37773,
2015-03-14, 09:52:04,VALID,920.786,VALID,0,VALID,82.6378,VALID,601.348,VALID,24.0665,VALID,47,VALID,0,
2015-03-14, 09:53:04,VALID,920.787,VALID,0,VALID,83.5603,VALID,783.353,VALID,24.2031,VALID,4,VALID,0.0769531,
2015-03-14, 09:54:04,VALID,920.793,VALID,0,VALID,80.4499,VALID,462.856,VALID,24.4374,VALID,115,VALID,1.04023,
2015-03-14, 09:55:04,VALID,920.84,VALID,0,VALID,79.9696,VALID,409.888,VALID,24.5368,VALID,152,VALID,0.791797,
2015-03-14, 09:56:04,VALID,920.808,VALID,0,VALID,77.9189,VALID,374.218,VALID,24.574,VALID,152,VALID,0.453906,
2015-03-14, 09:57:04,VALID,920.83,VALID,0,VALID,80.1221,VALID,344.349,VALID,24.6326,VALID,41,VALID,1.72227,
2015-03-14, 09:58:04,VALID,920.803,VALID,0,VALID,78.6508,VALID,329.844,VALID,24.7107,VALID,32,VALID,0.0695312,
2015-03-14, 09:59:04,VALID,920.82,VALID,0,VALID,77.8122,VALID,322.109,VALID,24.7674,VALID,39,VALID,0,
